Location: Bear Valley Community Church - Hurst
(32.8460°N, 97.1828°W)
Time: 01:27:05
(UTC+00:00)

Cosmos 1428 Rocket - Pass Details

Date: 08 December 2021
Orbit: 949 x 987 km, 82.9° (Epoch: 28 January)

Event Time Altitude Azimuth Distance (km) Brightness Sun altitude
Rises 12:41:51 0° 194° (SSW) 3,629 7.6 -8.0°
Reaches altitude 10° 12:44:23 10° 197° (SSW) 2,681 6.9 -7.5°
Maximum altitude 12:50:26 62° 278° (W) 1,067 4.5 -6.3°
Drops below altitude 10° 12:56:29 10° 358° (N) 2,678 6.6 -5.1°
Sets 12:59:01 0° 2° (N) 3,625 7.3 -4.7°
